Hourly Data Report for October 27, 2019

All times are specified in Local Standard Time (LST). Add 1 hour to adjust for Daylight Saving Time where and when it is observed.

EUREKA CLIMATE
NUNAVUT
Current Station Operator: ECCC - MSC

79°59'21.000" N
85°56'02.000" W
10.00 m
2401199
71613
NEK

Download Data

Hourly Data (October 2019)
Hourly Data Report for October 27, 2019
TIME Temp Definition
°C
Dew Point Definition
°C
Rel Hum Definition
%
Wind Dir Definition
10's deg

Wind Spd Definition
km/h
Visibility Definition
km
Stn Press Definition
kPa
Hmdx Definition


Wind Chill Definition


Weather Definition


00:00 -17.5 -19.4 85 4 10   101.95   -24 LegendNANA
01:00 -18.4 -20.1 87 2 16   102.01   -27 LegendNANA
02:00 -19.8 -21.4 87 1 13   102.07   -28 LegendNANA
03:00 -19.2 -20.7 88 1 14   102.11   -28 LegendNANA
04:00 -19.1 -20.6 88 2 12   102.16   -27 LegendNANA
05:00 -19.7 -21.5 86 2 9   102.19   -26 LegendNANA
06:00 -17.1 -18.4 90 36 9   102.24   -23 LegendNANA
07:00 -16.2 -17.6 89 1 11   102.27   -23 LegendNANA
08:00 -14.7 -16.3 88 28 21   102.35   -24 LegendNANA
09:00 -14.1 -15.7 88 27 12   102.39   -21 LegendNANA
10:00 -15.6 -17.5 85 29 21   102.43   -25 LegendNANA
11:00 -15.9 -17.9 85 30 20   102.47   -25 LegendNANA
12:00 -16.2 -18.1 86 28 22   102.51   -26 LegendNANA
13:00 -15.2 -16.8 87 27 18   102.55   -24 LegendNANA
14:00 -17.4 -19.3 86 27 20   102.60   -27 LegendNANA
15:00 -17.3 -19.4 84 30 24   102.67   -28 LegendNANA
16:00 -18.1 -19.9 85 29 20   102.73   -28 LegendNANA
17:00 -19.2 -21.2 84 29 18   102.76   -29 LegendNANA
18:00 -18.2 -20.5 82 30 15   102.80   -27 LegendNANA
19:00 -18.7 -20.7 85 27 22   102.84   -29 LegendNANA
20:00 -19.0 -20.9 85 28 26   102.88   -31 LegendNANA
21:00 -18.6 -20.5 84 30 22   102.89   -29 LegendNANA
22:00 -17.7 -20.0 82 28 23   102.91   -28 LegendNANA
23:00 -17.6 -19.9 82 29 21   102.94   -28 LegendNANA

Notes on Data Quality.

Legend

  • E = Estimated
  • M = Missing
  • NA = Not Available
Date modified: